Home   Weather   Prince Albert   Past weeks

Flag for Canada Past Weather in Prince Albert, Saskatchewan, Canada — Yesterday and Last 2 Weeks

Now
48 °F

Partly sunny.


Feels Like: 47 °F
Forecast: 42 / 70 °F
Wind: 3 mph from East

Location: Prince Albert

Current Time: Aug 30, 2016 at 9:00:10 AM

Latest Report: Aug 30, 2016 at 8:00 AM


Visibility: 15 mi

Pressure: 30.34 "Hg

Humidity: 87%

Dew Point: 45 °F

Location of Prince AlbertLocation

Past Weather in Prince Albert — Graph

°F

Prince Albert Temperature Yesterday

Maximum temperature yesterday: 66 °F (at 4:00 PM)
Minimum temperature yesterday: 43 °F (at 6:00 AM)
Average temperature yesterday: 54 °F

High & Low Weather Summary for the Past Weeks

 TemperatureHumidityPressure
High82 °F (Aug 16, 2:00 PM)100% (Aug 16, 4:00 AM)30.34 "Hg (Aug 16, 4:00 AM)
Low37 °F (Aug 30, 5:00 AM)32% (Aug 17, 6:00 PM)29.53 "Hg (Aug 22, 2:00 PM)
Average60 °F75%29.93 "Hg
* Reported Aug 15 7:00 AM — Aug 30 7:00 AM, Prince Albert, Weather by CustomWeather, © 2016

Note: Actual official high and low records may vary slightly from our data, if they occured in-between our weather recording intervals... More about our weather records

Advertising

Prince Albert Weather History for the Previous 24 Hours

Scroll right to see more
 ConditionsComfort  
Time TempWeatherWind HumidityBarometerVisibility
7:00 AM
Tue, Aug 30
39 °FFog.3 mph93%30.34 "Hg15 mi
6:00 AM39 °FPassing clouds.No wind93%30.33 "Hg15 mi
5:00 AM37 °FPassing clouds.2 mph93%30.33 "Hg15 mi
4:00 AM39 °FClear.No wind93%30.31 "Hg15 mi
3:00 AM39 °FClear.2 mph93%30.32 "Hg15 mi
2:00 AM41 °FClear.No wind93%30.31 "Hg15 mi
1:00 AM39 °FClear.No wind100%30.30 "Hg15 mi
12:00 AM43 °FClear.No wind93%30.29 "Hg15 mi
11:00 PM
Mon, Aug 29
46 °FPassing clouds.No wind87%30.28 "Hg15 mi
10:00 PM48 °FPassing clouds.No wind82%30.27 "Hg15 mi
9:00 PM52 °FPassing clouds.2 mph77%30.27 "Hg15 mi
8:00 PM55 °FPassing clouds.2 mph72%30.25 "Hg15 mi
7:00 PM61 °FPartly sunny.6 mph52%30.24 "Hg15 mi
6:00 PM64 °FPartly sunny.9 mph46%30.24 "Hg15 mi
5:00 PM66 °FPassing clouds.10 mph40%30.24 "Hg15 mi
4:00 PM66 °FPassing clouds.14 mph40%30.25 "Hg15 mi
3:00 PM64 °FPassing clouds.13 mph43%30.26 "Hg15 mi
2:00 PM64 °FScattered clouds.14 mph46%30.27 "Hg15 mi
1:00 PM63 °FScattered clouds.12 mph45%30.28 "Hg15 mi
12:00 PM59 °FPassing clouds.12 mph51%30.29 "Hg15 mi
11:00 AM57 °FPassing clouds.17 mph55%30.29 "Hg15 mi
10:00 AM55 °FPassing clouds.13 mph59%30.29 "Hg15 mi
9:00 AM52 °FPassing clouds.10 mph72%30.29 "Hg15 mi
Weather by CustomWeather, © 2016

See weather overviewHow to use our weather pages